Location: Black Swamp Observatory
(41.3920°N, 84.1250°W)
Time: 12:08:37
(UTC-05:00)

ISS - Pass Details

Date: 08 December 2021
Orbit: 413 x 422 km, 51.6° (Epoch: 19 January)

Event Time Altitude Azimuth Distance (km) Brightness Sun altitude
Rises 18:06:41 0° 301° (WNW) 2,381 0.7 -11.0°
Reaches altitude 10° 18:08:51 10° 296° (WNW) 1,511 -0.3 -11.3°
Maximum altitude 18:12:07 47° 221° (SW) 566 -2.7 -11.9°
Drops below altitude 10° 18:15:22 10° 146° (SE) 1,496 -1.1 -12.5°
Enters shadow 18:18:14 -3° 139° (SE) 2,661 0.1 -13.0°
